Tel Aviv, Israel

7:00 PM IDT on April 24, 2017 (GMT +0300)
Ben Gurion

Weather History for LLBG - August, 2013

Change the Weather History Date:

Wednesday, August 21, 2013

  Actual Average Record
Temperature  
Mean Temperature 84 °F -  
Max Temperature 91 °F 86 °F 93 °F (1999)
Min Temperature 77 °F 71 °F 71 °F (1996)
Cooling Degree Days 19    
Growing Degree Days 34 (Base 50)    
Moisture  
Dew Point 70 °F    
Average Humidity 65    
Maximum Humidity 83    
Minimum Humidity 46    
Precipitation  
Precipitation 0.00 in - - ()
Sea Level Pressure  
Sea Level Pressure 29.77 in    
Wind  
Wind Speed 6 mph ()    
Max Wind Speed 15 mph    
Max Gust Speed -    
Visibility 6.1 miles    
Events      
Averages and records for this station are not official NWS values.
T = Trace of Precipitation, MM = Missing Value Source: Averaged Metar Reports

Daily Weather History Graph

Daily Weather History Graph

Search for Another Location

Airport or City:

Trip Planner

Search our weather history database for the weather conditions in past years. The results will help you decide how hot, cold, wet, or windy it might be!

Date:

Astronomy

Aug. 21, 2013 Rise Set
Actual Time 6:08 AM IDT 7:17 PM IDT
Civil Twilight 5:43 AM IDT 7:43 PM IDT
Nautical Twilight 5:13 AM IDT 8:13 PM IDT
Astronomical Twilight 4:41 AM IDT 8:44 PM IDT
Moon 7:20 PM IDT (8/21) 6:20 AM IDT (8/21)
Length of Visible Light 13h 59m
Length of Day
13h 09m
Full, 100% of the Moon is Illuminated
Aug 21
Full
Aug 28
Last Quarter
Sep 5
New
Sep 12
First Quarter
Sep 19
Full

Hourly Weather History & Observations

Time (IDT) Temp. Heat Index Dew Point Humidity Pressure Visibility Wind Dir Wind Speed Gust Speed Precip Events Conditions
12:20 AM 80.6 °F 84.6 °F 71.6 °F 74% 29.74 in 6.2 mi South 4.6 mph - N/A   Partly Cloudy
12:50 AM 80.6 °F 84.6 °F 71.6 °F 74% 29.74 in - Variable 3.5 mph - N/A   Clear
1:20 AM 80.6 °F 84.6 °F 71.6 °F 74% 29.74 in - SSE 4.6 mph - N/A   Clear
1:50 AM 78.8 °F - 71.6 °F 78% 29.74 in 6.2 mi South 4.6 mph - N/A   Partly Cloudy
2:20 AM 78.8 °F - 71.6 °F 78% 29.74 in 6.2 mi South 4.6 mph - N/A   Partly Cloudy
2:50 AM 78.8 °F - 71.6 °F 78% 29.74 in - Variable 3.5 mph - N/A   Clear
3:00 AM 78 °F - 72 °F 76% 29.75 in 6 mi 3.5 mph - -  
3:20 AM 77.0 °F - 71.6 °F 83% 29.74 in - South 4.6 mph - N/A   Clear
3:50 AM 78.8 °F - 69.8 °F 74% 29.74 in - SSE 5.8 mph - N/A   Clear
4:20 AM 77.0 °F - 69.8 °F 78% 29.74 in - South 4.6 mph - N/A   Clear
4:50 AM 77.0 °F - 69.8 °F 78% 29.74 in 6.2 mi South 5.8 mph - N/A   Scattered Clouds
5:20 AM 77.0 °F - 69.8 °F 78% 29.74 in 6.2 mi South 5.8 mph - N/A   Scattered Clouds
5:50 AM 77.0 °F - 68.0 °F 74% 29.74 in 5.6 mi SSE 8.1 mph - N/A   Mostly Cloudy
6:20 AM 77.0 °F - 68.0 °F 74% 29.77 in 5.6 mi SSE 6.9 mph - N/A   Mostly Cloudy
6:50 AM 77.0 °F - 68.0 °F 74% 29.77 in 5.6 mi SSE 6.9 mph - N/A   Scattered Clouds
7:20 AM 78.8 °F - 69.8 °F 74% 29.77 in 5.6 mi SSE 8.1 mph - N/A   Scattered Clouds
7:50 AM 80.6 °F 83.9 °F 69.8 °F 70% 29.77 in 5.6 mi SSE 6.9 mph - N/A   Mostly Cloudy
8:20 AM 80.6 °F 83.9 °F 69.8 °F 70% 29.77 in 5.6 mi SSE 9.2 mph - N/A   Mostly Cloudy
8:50 AM 82.4 °F 87.2 °F 71.6 °F 70% 29.77 in 6.2 mi South 6.9 mph - N/A   Mostly Cloudy
9:00 AM 82 °F - 71 °F 62% 29.78 in 6 mi South 6.9 mph - -  
9:20 AM 84.2 °F 89.6 °F 71.6 °F 66% 29.77 in 6.2 mi South 5.8 mph - N/A   Mostly Cloudy
9:50 AM 84.2 °F 87.3 °F 68.0 °F 58% 29.77 in 6.2 mi SSW 5.8 mph - N/A   Scattered Clouds
10:20 AM 86.0 °F 90.4 °F 69.8 °F 58% 29.77 in 6.2 mi WSW 5.8 mph - N/A   Scattered Clouds
10:50 AM 87.8 °F 92.6 °F 69.8 °F 55% 29.77 in 6.2 mi SSW 5.8 mph - N/A   Scattered Clouds
11:20 AM 87.8 °F 92.6 °F 69.8 °F 55% 29.77 in 6.2 mi WSW 6.9 mph - N/A   Scattered Clouds
11:50 AM 89.6 °F 94.7 °F 69.8 °F 52% 29.77 in 6.2 mi West 9.2 mph - N/A   Partly Cloudy
12:20 PM 89.6 °F 94.7 °F 69.8 °F 52% 29.77 in 6.2 mi West 10.4 mph - N/A   Partly Cloudy
12:50 PM 89.6 °F 93.4 °F 68.0 °F 49% 29.77 in 6.2 mi West 10.4 mph - N/A   Partly Cloudy
1:20 PM 89.6 °F 93.4 °F 68.0 °F 49% 29.77 in 6.2 mi West 11.5 mph - N/A   Partly Cloudy
1:50 PM 89.6 °F 94.7 °F 69.8 °F 52% 29.77 in 6.2 mi West 11.5 mph - N/A   Partly Cloudy
2:20 PM 89.6 °F 94.7 °F 69.8 °F 52% 29.77 in 6.2 mi West 12.7 mph - N/A   Partly Cloudy
2:50 PM 89.6 °F 96.2 °F 71.6 °F 55% 29.77 in 6.2 mi West 13.8 mph - N/A   Partly Cloudy
3:00 PM 89 °F - 71 °F 46% 29.77 in 6 mi West 13.8 mph - -   Scattered Clouds
3:20 PM 89.6 °F 94.7 °F 69.8 °F 52% 29.77 in 6.2 mi West 13.8 mph - N/A   Partly Cloudy
3:50 PM 87.8 °F 93.8 °F 71.6 °F 58% 29.77 in 6.2 mi West 15.0 mph - N/A   Partly Cloudy
4:20 PM 87.8 °F 91.4 °F 68.0 °F 52% 29.77 in 6.2 mi West 15.0 mph - N/A   Partly Cloudy
4:50 PM 87.8 °F 93.8 °F 71.6 °F 58% 29.77 in 6.2 mi West 15.0 mph - N/A   Partly Cloudy
5:20 PM 87.8 °F 92.6 °F 69.8 °F 55% 29.77 in 6.2 mi WNW 15.0 mph - N/A   Partly Cloudy
5:50 PM 86.0 °F 91.8 °F 71.6 °F 62% 29.77 in 6.2 mi WNW 15.0 mph - N/A   Scattered Clouds
6:20 PM 84.2 °F 89.6 °F 71.6 °F 66% 29.77 in 6.2 mi NW 11.5 mph - N/A   Scattered Clouds
6:50 PM 84.2 °F 88.4 °F 69.8 °F 62% 29.77 in 6.2 mi WNW 11.5 mph - N/A   Scattered Clouds
7:20 PM 84.2 °F 89.6 °F 71.6 °F 66% 29.77 in 6.2 mi NW 9.2 mph - N/A   Scattered Clouds
7:50 PM 84.2 °F 89.6 °F 71.6 °F 66% 29.77 in 6.2 mi NW 6.9 mph - N/A   Partly Cloudy
8:20 PM 84.2 °F 89.6 °F 71.6 °F 66% 29.77 in 6.2 mi NNW 5.8 mph - N/A   Partly Cloudy
8:50 PM 82.4 °F 87.2 °F 71.6 °F 70% 29.80 in 6.2 mi Variable 3.5 mph - N/A   Partly Cloudy
9:00 PM 83 °F - 71 °F 58% 29.79 in 6 mi 3.5 mph - -   Scattered Clouds
9:20 PM 82.4 °F 87.2 °F 71.6 °F 70% 29.80 in 6.2 mi West 4.6 mph - N/A   Partly Cloudy
9:50 PM 82.4 °F 87.2 °F 71.6 °F 70% 29.80 in 6.2 mi Variable 2.3 mph - N/A   Partly Cloudy
10:20 PM 82.4 °F 87.2 °F 71.6 °F 70% 29.80 in 6.2 mi Variable 2.3 mph - N/A   Partly Cloudy
10:50 PM 82.4 °F 86.3 °F 69.8 °F 66% 29.80 in - Variable 3.5 mph - N/A   Clear
11:20 PM 80.6 °F 83.9 °F 69.8 °F 70% 29.80 in - Variable 2.3 mph - N/A   Clear
11:50 PM 80.6 °F 83.9 °F 69.8 °F 70% 29.77 in - Variable 3.5 mph - N/A   Clear